WESTFORD NEEDLES, 5702

Orbit data source: Space-Track

WESTFORD NEEDLES, 5702 is space debris in LEO originally from a launch on Thu, 09 May 1963 UTC launched from the Air Force Western Test Range (AFWTR). Debris objects in space refer to the collection of defunct objects orbiting the Earth. Examples of debris include non-operational satellites, rocket bodies, and fragments generated from explosions, collisions, or faulty payload assembly.

Loading next visibility...
Identifier
5702, 1963-014CU
Orbit
LEO
Country
Flag of USUS
Related business
Manufacturer
Unknown
Mission
Spacecraft
Bus & Motor
Unknown
Mass
Unknown
Launch date (UTC)
1963-05-09 (63 years ago)
Launch vehicle
Unknown
Launch site
Air Force Western Test Range (AFWTR)
Object type
Payload
Rocket body
Debris
Shape & HBR
Unknown shape, 0.1 m
Radar Cross Section
Medium (>0.1 m² and <1 m²)

Expand to show TLE details & history
Last TLE update: 1 day ago

TLE from 1 day ago
0 WESTFORD NEEDLES
1 05702U 63014CU  26111.28996847 -.00001610  00000-0 -10773+0 0  9999
2 05702  86.1406  72.2829 1896904 221.1719 122.9727  8.75657796421952
Epoch: 2026-04-21T06:57Z
TLE epoch observation values (Epoch: 2026-04-21T06:57:33.275Z)
Latitude
-0.00002°
Longitude
118.52638°
Altitude
4,808.273 km
Speed
5.585 km/s
True Right ascension
04h 49m 07s
True Declination
0° 00' 00"
Sunlit
Object was in daylight at epoch
Visualization orbit readout
Latitude
Unknown
Longitude
Unknown
Altitude
Unknown
Speed
Unknown
Apparent Right ascension
Unknown
Apparent Declination
Unknown
Sunlit
N/A
Visualization observer readout
Local Sidereal Time
19:06:06
Azimuth
Unknown
Elevation
Unknown
Doppler factor
Unknown
Orbital elements
Apogee altitude
5,448.075 km
Perigee altitude
1,676.81 km
Semi-major axis
9,940.579 km
Eccentricity
0.18969
Inclination
86.1406°
RAAN
72.2829°
Arg. of periapsis
221.1719°
True anomaly
138.91266°
Mean anomaly
122.9727°
Eccentric anomaly
131.15581°
Mean motion
2.18991 °/min
Orbital period
164.39 mins
BSTAR
-0.10773
Loading maneuver chart data...
Computing Atmospheric mass density...

Documentation

Showing up to 5 results
|